{"data":{"norad_id":85246,"epoch":"2026-05-23T16:43:14.311488Z","epoch_age_seconds":181413,"freshness":"STALE","line1":"1 85246U          26143.69669342  .00000627  00000+0  23544-3 0  9991","line2":"2 85246  97.9921 137.1249 0221628 185.7064 174.1586 14.22006090646083","mean_motion":14.2200609,"eccentricity":0.0221628,"inclination_deg":97.9921,"raan_deg":137.1249,"arg_perigee_deg":185.7064,"mean_anomaly_deg":174.1586,"bstar":0.00023544,"rev_number":64608,"period_min":101.26538909549,"perigee_km":659.07701474709,"apogee_km":978.07565126048,"semimajor_km":7196.7133330038,"source":"CELESTRAK","updated_at":"2026-05-25T13:38:11.432541Z"}}